SCP
0 0 0 0 0 0 0 0 0 0 0 0 0 0 0 0 0 0 0 0 0 0 0 0 0 0 0 0 0 0 0 0 0 0 0 0 0 0
0 0 0 0 0 0 0 0 0 0 0 0 0 0 0 0 0 0 0 0 0 0 0 0 0 0 0 0 0 0 0 0 0 0 0 0 0 0
0 0 0 0 0 0 0 0 0 0 0 0 0 0 0 0 0 0 0 0 0 0 0 0 0 0 0 0 0 0 0 0 0 0 0 0 0 0
0 0 0 0 0 0 0 0 0 0 0 0 0 0 0 0 0 0 0 0 0 0 0 0 0 0 0 0 0 0 0 0 0 0 0 0 0 0
0 0 0 0 0 0 0 0 0 0 0 0 0 0 0 0 0 0 0 0 0 0 0 0 0 0 0 0 0 0 0 0 0 0 0 0 0 0
0 0 0 0 0 0 0 0 0 0 0 0 0 0 0 0 0 0 0 0 0 0 0 0 0 0 0 0 0 0 0 0 0 0 0 0 0 0
0 0 0 0 0 0 0 0 0 0 0 0 0 0 0 0 0 0 0 0 0 0 0 0 0 0 0 0 0 0 0 0 0 0 0 0 0 0
0 0 0 0 0 0 0 0 0 0 0 0 0 0 0 0 0 0 0 0 0 0 0 0 0 0 0 0 0 0 0 0 0 0 0 0 0 0
0 0 0 0 0 0 0 0 0 0 0 0 0 0 0 0 0 0 0 0 0 0 0 0 0 0 0 0 0 0 0 0 0 0 0 0 0 0
0 0 0 0 0 0 0 0 0 0 0 0 0 0 0 0 0 0 0 0 0 0 0 0 0 0 0 0 0 0 0 0 0 0 0 0 0 0
0 0 0 0 0 0 0 0 0 0 0 0 0 0 0 0 0 0 0 0 0 0 0 0 0 0 0 0 0 0 0 0 0 0 0 0 0 0
0 0 0 0 0 0 0 0 0 0 0 0 0 0 0 0 0 0 0 0 0 0 0 0 0 0 0 0 0 0 0 0 0 0 0 0 0 0
0 0 0 0 0 0 0 0 0 0 0 0 0 0 0 0 0 0 0 0 0 0 0 0 0 0 0 0 0 0 0 0 0 0 0 0 0 0
0 0 0 0 0 0 0 0 0 0 0 0 0 0 0 0 0 0 0 0 0 0 0 0 0 0 0 0 0 0 0 0 0 0 0 0 0 0
0 0 0 0 0 0 0 0 0 0 0 0 0 0 0 0 0 0 0 0 0 0 0 0 0 0 0 0 0 0 0 0 0 0 0 0 0 0
0 0 0 0 0 0 0 0 0 0 0 0 0 0 0 0 0 0 0 0 0 0 0 0 0 0 0 0 0 0 0 0 0 0 0 0 0 0
0 0 0 0 0 0 0 0 0 0 0 0 0 0 0 0 0 0 0 0 0 0 0 0 0 0 0 0 0 0 0 0 0 0 0 0 0 0
0 0 0 0 0 0 0 0 0 0 0 0 0 0 0 0 0 0 0 0 0 0 0 0 0 0 0 0 0 0 0 0 0 0 0 0 0 0
0 0 0 0 0 0 0 0 0 0 0 0 0 0 0 0 0 0 0 0 0 0 0 0 0 0 0 0 0 0 0 0 0 0 0 0 0 0
0 0 0 0 0 0 0 0 0 0 0 0 0 0 0 0 0 0 0 0 0 0 0 0 0 0 0 0 0 0 0 0 0 0 0 0 0 0
0 0 0 0 0 0 0 0 0 0 0 0 0 0 0 0 0 0 0 0 0 0 0 0 0 0 0 0 0 0 0 0 0 0 0 0 0 0
0 0 0 0 0 0 0 0 0 0 0 0 0 0 0 0 0 0 0 0 0 0 0 0 0 0 0 0 0 0 0 0 0 0 0 0 0 0
0 0 0 0 0 0 0 0 0 0 0 0 0 0 0 0 0 0 0 0 0 0 0 0 0 0 0 0 0 0 0 0 0 0 0 0 0 0
Wind_Speed_500mb
106 98 89 86 80 76 73 68 41 34 25 28 37 34 41 43 41 41 43 38 37 36 34 30 29 30 31 30 26 27 29 29 30 33 33 32 33 34
102 99 93 87 83 77 78 77 73 49 39 23 14 28 34 35 38 43 43 40 40 39 37 34 33 32 31 32 30 31 31 32 34 36 35 35 36 37
90 96 91 83 85 81 80 82 83 73 52 42 46 33 21 32 30 37 47 44 43 41 39 36 37 36 34 33 35 35 37 36 37 39 38 37 39 39
100 102 106 102 106 101 95 93 84 80 77 63 44 53 43 35 30 35 33 38 42 41 41 40 41 40 38 40 41 41 42 43 41 40 41 42 42 43
109 113 114 101 99 97 98 86 86 79 74 66 59 61 54 49 43 43 38 40 42 44 43 46 46 45 47 46 46 47 48 48 45 42 44 45 45 46
108 110 107 107 115 104 89 77 95 83 68 66 65 62 67 63 59 56 51 49 47 48 48 47 46 48 52 50 51 50 52 49 48 48 45 47 46 48
102 104 97 100 102 99 106 92 91 85 68 69 68 67 71 70 70 69 62 63 59 58 53 52 51 53 53 53 57 56 52 51 49 49 49 49 48 50
92 85 92 94 97 95 88 86 93 101 97 91 86 79 77 72 68 74 70 69 66 65 58 59 55 56 52 53 57 55 54 53 54 54 54 54 52 50
81 85 81 96 102 92 101 89 85 86 97 93 87 82 73 74 69 73 73 75 67 62 56 55 56 53 51 53 51 50 53 54 59 62 59 61 56 50
75 56 79 100 100 107 92 101 98 108 111 102 98 89 79 74 70 62 66 56 57 62 62 61 64 62 60 60 57 54 52 55 62 67 67 67 59 48
67 71 60 73 80 87 91 96 95 104 104 103 98 95 89 84 80 70 68 62 63 69 67 64 67 65 67 65 58 55 56 57 61 65 67 65 57 47
65 81 70 64 66 93 82 112 101 95 93 101 105 104 97 95 91 85 78 75 75 75 76 71 70 70 65 63 60 59 57 54 49 51 59 60 53 50
80 70 80 76 62 49 85 90 88 89 89 105 89 96 100 104 103 94 90 86 89 88 77 66 66 64 67 58 58 53 52 46 45 48 57 57 53 53
63 73 75 80 84 82 87 93 86 80 81 86 90 90 85 88 99 97 94 96 96 90 79 77 74 72 66 72 64 62 53 54 49 52 58 57 54 55
50 61 68 79 78 75 73 93 85 78 89 94 97 95 95 84 82 86 87 88 90 90 84 82 74 70 76 68 68 66 57 53 55 59 58 57 58 56
32 48 69 72 76 80 72 83 93 97 88 98 96 99 99 92 89 81 80 82 85 88 84 83 79 77 74 71 68 63 60 52 57 62 60 59 60 61
27 33 42 56 67 66 62 71 83 88 91 94 99 98 98 96 92 89 82 83 86 86 88 89 86 80 76 70 64 63 58 61 57 52 62 64 61 53
38 31 24 21 32 44 64 75 80 91 103 96 95 94 90 100 96 93 86 86 86 90 92 94 93 84 75 69 67 61 63 62 60 57 57 60 57 54
74 72 57 40 28 29 35 51 69 77 86 99 95 97 105 104 97 98 90 87 89 91 92 96 100 99 86 80 74 72 70 70 64 61 59 57 56 49
66 67 68 68 54 38 26 30 36 48 62 72 80 93 93 100 98 94 99 96 98 95 101 101 102 101 90 81 84 84 79 67 65 64 61 56 50 46
56 57 57 58 62 59 40 30 30 28 35 44 58 64 76 92 91 93 100 97 99 102 107 109 99 87 86 76 80 76 76 68 54 62 58 50 45 42
54 50 48 51 56 55 57 48 36 29 21 25 34 43 52 63 76 87 87 91 98 105 107 106 95 88 83 88 84 79 75 71 65 57 51 45 41 31
46 49 49 44 47 50 55 55 56 45 30 20 15 19 29 42 54 63 72 78 78 94 95 90 88 87 83 84 76 72 71 67 58 54 45 42 40 36
Wind_Direction_500mb
229 229 231 237 241 243 247 250 246 251 257 264 232 228 229 231 228 224 228 227 229 232 232 233 235 238 243 250 254 257 260 264 266 266 266 270 275 282
228 231 230 232 240 241 244 251 248 244 247 251 242 237 235 232 233 229 230 231 231 235 236 238 240 244 247 253 254 259 263 266 267 266 267 269 273 278
224 228 230 236 242 245 249 253 242 241 240 245 249 248 254 232 232 230 230 232 235 236 239 242 246 249 251 255 258 260 265 267 268 269 268 269 272 276
228 230 237 241 242 246 251 251 235 235 237 246 247 248 249 252 247 238 231 233 238 242 245 248 250 253 256 255 257 261 263 267 268 271 270 269 271 273
235 236 240 240 239 241 247 238 227 223 237 239 243 248 246 249 251 248 242 239 241 245 245 249 253 255 255 257 260 264 264 266 269 270 270 270 270 271
242 239 240 242 239 242 239 241 227 230 231 235 242 245 247 248 253 253 250 249 248 249 251 254 258 259 259 257 259 265 264 266 268 267 270 269 268 271
243 244 246 242 239 242 247 245 227 221 224 234 237 238 247 248 252 256 254 251 251 253 256 254 257 263 264 262 261 258 262 262 267 267 265 264 263 267
235 237 242 249 247 245 242 246 252 226 218 230 237 238 251 257 258 255 254 251 252 256 260 263 261 266 266 268 262 262 261 259 260 263 262 260 259 265
241 242 246 247 249 254 249 247 247 225 222 237 243 242 254 255 258 257 256 251 255 260 262 263 264 263 265 270 263 260 259 256 262 259 261 255 253 260
244 254 261 248 246 247 245 238 240 235 239 246 244 247 252 256 256 259 261 262 257 260 260 259 264 266 269 272 269 261 260 258 259 258 256 252 253 251
253 249 261 243 238 247 242 248 245 242 243 244 243 249 254 251 253 256 250 249 252 257 257 257 261 266 269 269 268 262 265 262 262 262 257 249 248 245
250 239 249 241 266 238 246 245 245 250 246 243 247 249 252 250 246 248 250 249 252 254 255 254 260 265 265 260 264 266 262 267 261 259 250 246 242 243
237 245 246 246 238 270 244 240 240 247 242 244 254 252 251 252 245 244 248 252 251 252 256 256 257 259 252 253 264 258 266 262 264 248 242 236 238 243
227 230 244 251 238 250 251 244 243 246 249 257 248 249 249 253 245 244 247 251 253 257 260 257 256 257 257 252 251 260 252 255 249 238 234 234 237 239
243 232 226 241 246 250 245 241 248 246 249 242 247 255 256 257 253 245 244 247 248 248 249 250 251 252 251 249 254 253 249 250 240 232 228 232 235 239
275 256 242 236 241 243 249 240 244 242 247 246 248 249 252 249 251 248 243 242 242 240 240 242 242 245 241 243 246 250 243 230 229 225 227 229 236 238
325 284 268 250 249 244 238 243 245 242 245 249 249 248 246 246 247 244 244 241 238 236 234 234 235 235 237 239 239 240 237 225 223 224 225 229 230 234
19 6 342 291 279 262 252 248 251 251 247 253 247 244 242 248 247 244 241 242 239 237 233 233 232 229 226 225 228 230 224 222 223 222 223 225 229 235
31 30 23 10 343 309 273 260 250 245 248 252 250 250 243 249 248 247 243 239 239 238 238 235 229 224 216 219 223 220 223 218 216 215 220 223 227 232
29 25 26 23 12 354 340 303 270 254 246 244 240 241 247 240 239 247 245 242 240 237 235 233 225 221 227 232 226 219 214 219 216 214 214 218 226 233
21 20 21 18 18 17 4 350 332 294 258 247 238 238 241 243 248 242 246 242 239 238 235 228 224 226 224 226 221 211 205 203 214 218 217 217 224 233
10 12 15 9 14 17 16 18 354 343 318 275 258 245 242 246 250 244 244 242 235 235 236 226 221 217 217 219 215 210 201 199 203 205 210 219 223 222
3 0 358 5 6 6 15 17 19 7 351 338 309 268 255 247 245 247 245 236 237 226 221 213 212 208 206 210 209 199 195 196 201 200 208 222 226 232
Wind_Speed_850mb
106 98 89 86 80 76 73 68 41 34 25 28 37 34 41 43 41 41 43 38 37 36 34 30 29 30 31 30 26 27 29 29 30 33 33 32 33 34
102 99 93 87 83 77 78 77 73 49 39 23 14 28 34 35 38 43 43 40 40 39 37 34 33 32 31 32 30 31 31 32 34 36 35 35 36 37
90 96 91 83 85 81 80 82 83 73 52 42 46 33 21 32 30 37 47 44 43 41 39 36 37 36 34 33 35 35 37 36 37 39 38 37 39 39
100 102 106 102 106 101 95 93 84 80 77 63 44 53 43 35 30 35 33 38 42 41 41 40 41 40 38 40 41 41 42 43 41 40 41 42 42 43
109 113 114 101 99 97 98 86 86 79 74 66 59 61 54 49 43 43 38 40 42 44 43 46 46 45 47 46 46 47 48 48 45 42 44 45 45 46
108 110 107 107 115 104 89 77 95 83 68 66 65 62 67 63 59 56 51 49 47 48 48 47 46 48 52 50 51 50 52 49 48 48 45 47 46 48
102 104 97 100 102 99 106 92 91 85 68 69 68 67 71 70 70 69 62 63 59 58 53 52 51 53 53 53 57 56 52 51 49 49 49 49 48 50
92 85 92 94 97 95 88 86 93 101 97 91 86 79 77 72 68 74 70 69 66 65 58 59 55 56 52 53 57 55 54 53 54 54 54 54 52 50
81 85 81 96 102 92 101 89 85 86 97 93 87 82 73 74 69 73 73 75 67 62 56 55 56 53 51 53 51 50 53 54 59 62 59 61 56 50
75 56 79 100 100 107 92 101 98 108 111 102 98 89 79 74 70 62 66 56 57 62 62 61 64 62 60 60 57 54 52 55 62 67 67 67 59 48
67 71 60 73 80 87 91 96 95 104 104 103 98 95 89 84 80 70 68 62 63 69 67 64 67 65 67 65 58 55 56 57 61 65 67 65 57 47
65 81 70 64 66 93 82 112 101 95 93 101 105 104 97 95 91 85 78 75 75 75 76 71 70 70 65 63 60 59 57 54 49 51 59 60 53 50
80 70 80 76 62 49 85 90 88 89 89 105 89 96 100 104 103 94 90 86 89 88 77 66 66 64 67 58 58 53 52 46 45 48 57 57 53 53
63 73 75 80 84 82 87 93 86 80 81 86 90 90 85 88 99 97 94 96 96 90 79 77 74 72 66 72 64 62 53 54 49 52 58 57 54 55
50 61 68 79 78 75 73 93 85 78 89 94 97 95 95 84 82 86 87 88 90 90 84 82 74 70 76 68 68 66 57 53 55 59 58 57 58 56
32 48 69 72 76 80 72 83 93 97 88 98 96 99 99 92 89 81 80 82 85 88 84 83 79 77 74 71 68 63 60 52 57 62 60 59 60 61
27 33 42 56 67 66 62 71 83 88 91 94 99 98 98 96 92 89 82 83 86 86 88 89 86 80 76 70 64 63 58 61 57 52 62 64 61 53
38 31 24 21 32 44 64 75 80 91 103 96 95 94 90 100 96 93 86 86 86 90 92 94 93 84 75 69 67 61 63 62 60 57 57 60 57 54
74 72 57 40 28 29 35 51 69 77 86 99 95 97 105 104 97 98 90 87 89 91 92 96 100 99 86 80 74 72 70 70 64 61 59 57 56 49
66 67 68 68 54 38 26 30 36 48 62 72 80 93 93 100 98 94 99 96 98 95 101 101 102 101 90 81 84 84 79 67 65 64 61 56 50 46
56 57 57 58 62 59 40 30 30 28 35 44 58 64 76 92 91 93 100 97 99 102 107 109 99 87 86 76 80 76 76 68 54 62 58 50 45 42
54 50 48 51 56 55 57 48 36 29 21 25 34 43 52 63 76 87 87 91 98 105 107 106 95 88 83 88 84 79 75 71 65 57 51 45 41 31
46 49 49 44 47 50 55 55 56 45 30 20 15 19 29 42 54 63 72 78 78 94 95 90 88 87 83 84 76 72 71 67 58 54 45 42 40 36
Wind_Direction_850mb
229 229 231 237 241 243 247 250 246 251 257 264 232 228 229 231 228 224 228 227 229 232 232 233 235 238 243 250 254 257 260 264 266 266 266 270 275 282
228 231 230 232 240 241 244 251 248 244 247 251 242 237 235 232 233 229 230 231 231 235 236 238 240 244 247 253 254 259 263 266 267 266 267 269 273 278
224 228 230 236 242 245 249 253 242 241 240 245 249 248 254 232 232 230 230 232 235 236 239 242 246 249 251 255 258 260 265 267 268 269 268 269 272 276
228 230 237 241 242 246 251 251 235 235 237 246 247 248 249 252 247 238 231 233 238 242 245 248 250 253 256 255 257 261 263 267 268 271 270 269 271 273
235 236 240 240 239 241 247 238 227 223 237 239 243 248 246 249 251 248 242 239 241 245 245 249 253 255 255 257 260 264 264 266 269 270 270 270 270 271
242 239 240 242 239 242 239 241 227 230 231 235 242 245 247 248 253 253 250 249 248 249 251 254 258 259 259 257 259 265 264 266 268 267 270 269 268 271
243 244 246 242 239 242 247 245 227 221 224 234 237 238 247 248 252 256 254 251 251 253 256 254 257 263 264 262 261 258 262 262 267 267 265 264 263 267
235 237 242 249 247 245 242 246 252 226 218 230 237 238 251 257 258 255 254 251 252 256 260 263 261 266 266 268 262 262 261 259 260 263 262 260 259 265
241 242 246 247 249 254 249 247 247 225 222 237 243 242 254 255 258 257 256 251 255 260 262 263 264 263 265 270 263 260 259 256 262 259 261 255 253 260
244 254 261 248 246 247 245 238 240 235 239 246 244 247 252 256 256 259 261 262 257 260 260 259 264 266 269 272 269 261 260 258 259 258 256 252 253 251
253 249 261 243 238 247 242 248 245 242 243 244 243 249 254 251 253 256 250 249 252 257 257 257 261 266 269 269 268 262 265 262 262 262 257 249 248 245
250 239 249 241 266 238 246 245 245 250 246 243 247 249 252 250 246 248 250 249 252 254 255 254 260 265 265 260 264 266 262 267 261 259 250 246 242 243
237 245 246 246 238 270 244 240 240 247 242 244 254 252 251 252 245 244 248 252 251 252 256 256 257 259 252 253 264 258 266 262 264 248 242 236 238 243
227 230 244 251 238 250 251 244 243 246 249 257 248 249 249 253 245 244 247 251 253 257 260 257 256 257 257 252 251 260 252 255 249 238 234 234 237 239
243 232 226 241 246 250 245 241 248 246 249 242 247 255 256 257 253 245 244 247 248 248 249 250 251 252 251 249 254 253 249 250 240 232 228 232 235 239
275 256 242 236 241 243 249 240 244 242 247 246 248 249 252 249 251 248 243 242 242 240 240 242 242 245 241 243 246 250 243 230 229 225 227 229 236 238
325 284 268 250 249 244 238 243 245 242 245 249 249 248 246 246 247 244 244 241 238 236 234 234 235 235 237 239 239 240 237 225 223 224 225 229 230 234
19 6 342 291 279 262 252 248 251 251 247 253 247 244 242 248 247 244 241 242 239 237 233 233 232 229 226 225 228 230 224 222 223 222 223 225 229 235
31 30 23 10 343 309 273 260 250 245 248 252 250 250 243 249 248 247 243 239 239 238 238 235 229 224 216 219 223 220 223 218 216 215 220 223 227 232
29 25 26 23 12 354 340 303 270 254 246 244 240 241 247 240 239 247 245 242 240 237 235 233 225 221 227 232 226 219 214 219 216 214 214 218 226 233
21 20 21 18 18 17 4 350 332 294 258 247 238 238 241 243 248 242 246 242 239 238 235 228 224 226 224 226 221 211 205 203 214 218 217 217 224 233
10 12 15 9 14 17 16 18 354 343 318 275 258 245 242 246 250 244 244 242 235 235 236 226 221 217 217 219 215 210 201 199 203 205 210 219 223 222
3 0 358 5 6 6 15 17 19 7 351 338 309 268 255 247 245 247 245 236 237 226 221 213 212 208 206 210 209 199 195 196 201 200 208 222 226 232